This demonstration page uses our WeatherBlox Daily Observations layout. Learn more.

Left ArrowRight Arrow

30.21309, -93.2044

Hourly Observations for July 23, 2021

Temp ( °F °C ) Dew Point ( °F °C ) Humidity (%) Winds ( mph kmh ) Pressure ( in mb ) Visibility ( mi km ) Precip ( " mm )
12:15 am 00:15 Clear 81 27.1 76 24.7 87 87 SW 5 7 30.14 1021 10 16 0.00 0.00
12:35 am 00:35 Clear 81 27.1 76 24.7 87 87 SSW 7 11 30.14 1021 10 16 0.00 0.00
12:55 am 00:55 Clear 81 27.2 76 24.7 86 86 SW 6 9 30.14 1021 10 16 0.00 0.00
1:15 am 01:15 Clear 81 27.1 76 24.6 86 86 SW 6 9 30.13 1020 10 16 0.00 0.00
1:35 am 01:35 Clear 81 27.2 76 24.5 85 85 SW 6 9 30.13 1020 10 16 0.00 0.00
1:55 am 01:55 Clear 81 27.1 76 24.5 86 86 SW 5 7 30.13 1020 10 16 0.00 0.00
2:15 am 02:15 Clear 81 27.1 76 24.4 85 85 SW 5 7 30.13 1020 10 16 0.00 0.00
2:35 am 02:35 Clear 81 27 76 24.4 86 86 SW 5 7 30.13 1020 10 16 0.00 0.00
2:55 am 02:55 Clear 81 27.2 76 24.5 85 85 WSW 5 7 30.13 1020 10 16 0.00 0.00
3:15 am 03:15 Clear 81 27.1 76 24.5 86 86 SW 5 7 30.13 1020 10 16 0.00 0.00
3:35 am 03:35 Clear 81 27.1 76 24.5 86 86 SW 3 6 30.13 1020 10 16 0.00 0.00
3:55 am 03:55 Clear 80 26.8 76 24.5 87 87 SW 3 6 30.13 1020 10 16 0.00 0.00
4:15 am 04:15 Clear 81 27 76 24.5 86 86 SW 3 6 30.13 1020 10 16 0.00 0.00
4:35 am 04:35 Clear 80 26.9 76 24.5 87 87 SW 3 6 30.14 1021 10 16 0.00 0.00
4:55 am 04:55 Clear 80 26.9 76 24.5 87 87 SW 5 7 30.14 1021 10 16 0.00 0.00
5:15 am 05:15 Clear 80 26.7 76 24.4 87 87 SW 3 6 30.14 1021 10 16 0.00 0.00
5:35 am 05:35 Clear 80 26.8 76 24.5 87 87 SW 3 6 30.14 1021 10 16 0.00 0.00
6:00 am 06:00 Mostly Clear 79 26 75 24 89 89 Calm 30.14 1021 10 16 0.00 0.00
6:45 am 06:45 Mostly Sunny 77 25 75 24 94 94 Calm 30.16 1021 10 16 0.00 0.00
8:45 am 08:45 Mostly Cloudy 86 30 79 26 79 79 WSW 12 19 30.18 1022 10 16 0.00 0.00
9:46 am 09:46 Mostly Cloudy 88 31 75 24 66 66 SW 12 19 30.18 1022 10 16 0.00 0.00
10:45 am 10:45 Mostly Cloudy 90 32 75 24 63 63 WSW 13 20 30.18 1022 10 16 0.00 0.00
11:45 am 11:45 Mostly Cloudy 90 32 75 24 63 63 SW 13 20 30.17 1022 10 16 0.00 0.00
12:55 pm 12:55 Mostly Cloudy 90 32 75 24 63 63 SW 13 20 30.15 1021 10 16 0.00 0.00
1:55 pm 13:55 Mostly Cloudy 93 34 73 23 53 53 SW 15 24 30.13 1020 10 16 0.00 0.00
2:55 pm 14:55 Partly Cloudy 93 34 73 23 53 53 W 9 15 30.11 1020 10 16 0.00 0.00
3:55 pm 15:55 Partly Cloudy 93 34 73 23 53 53 SSW 12 19 30.09 1019 10 16 0.00 0.00
4:50 pm 16:50 Partly Cloudy 91 33 77 25 63 63 SSW 14 22 30.07 1018 10 16 0.00 0.00
5:50 pm 17:50 Partly Cloudy 90 32 79 26 71 71 SSW 10 17 30.06 1018 10 16 0.00 0.00
6:50 pm 18:50 Partly Cloudy 90 32 79 26 71 71 SSW 12 19 30.05 1018 10 16 0.00 0.00
7:55 pm 19:55 Partly Cloudy 88 31 79 26 75 75 SSW 9 15 30.07 1018 10 16 0.00 0.00
8:50 pm 20:50 Mostly Clear 86 30 79 26 79 79 SSW 9 15 30.07 1018 10 16 0.00 0.00
9:50 pm 21:50 Mostly Clear with Nearby Thunderstorms 84 29 79 26 84 84 SW 8 13 30.08 1019 10 16 0.00 0.00
10:15 pm 22:15 Clear 84 28.7 78 25.5 83 83 S 6 9 30.09 1019 10 16 0.00 0.00
10:35 pm 22:35 Clear with Nearby Thunderstorms 84 28.7 78 25.7 84 84 SSW 7 11 30.09 1019 10 16 0.00 0.00
10:55 pm 22:55 Clear with Nearby Thunderstorms 83 28.6 78 25.7 84 84 Calm 30.10 1019 10 16 0.00 0.00
11:15 pm 23:15 Clear 81 27.4 78 25.6 90 90 E 6 9 30.09 1019 10 16 0.00 0.00
11:35 pm 23:35 Clear 81 27.3 78 25.6 90 90 SSE 3 6 30.09 1019 10 16 0.00 0.00
11:55 pm 23:55 Clear 80 26.8 78 25.5 93 93 SE 6 9 30.09 1019 10 16 0.00 0.00

Powered by AerisWeather